Temp
17 19 19 19 19 18 18 18 17 17 17 17 17 17 17 16 16 17 17 16 15 15 15 16 15 15 15 16 16 15 15 14 14 14 15 15 14 14 14 14 15 15 15
19 18 19 19 19 18 18 18 18 17 17 17 17 17 17 16 16 17 17 16 15 15 15 16 15 15 15 16 16 15 15 15 15 14 15 15 15 14 15 15 15 15 15
19 18 18 18 18 18 18 18 18 17 17 17 17 17 17 16 16 16 16 16 15 16 16 16 16 16 16 16 15 15 14 14 14 15 15 16 16 15 14 14 15 14 14
18 18 18 18 18 18 17 17 17 17 17 16 16 16 17 16 16 16 16 15 16 16 16 17 17 16 16 16 15 14 14 14 14 16 16 16 16 15 15 14 14 15 14
18 17 17 18 17 17 17 17 17 17 16 16 16 16 16 16 16 16 15 15 15 16 17 17 17 16 16 16 15 15 14 14 14 15 16 16 16 16 16 15 15 15 15
18 17 17 17 18 17 17 17 17 17 16 16 16 16 16 16 16 15 15 15 15 16 17 17 16 16 16 16 15 15 15 15 15 15 15 15 16 15 15 15 15 15 15
17 17 17 17 17 17 17 17 17 16 16 16 16 16 16 16 16 16 15 15 15 16 16 16 16 16 16 16 15 15 15 15 16 15 15 15 15 15 15 15 15 15 15
18 16 16 16 16 17 17 17 16 16 16 16 16 16 16 16 16 16 14 14 16 16 16 16 16 16 16 16 15 15 15 15 15 15 15 15 15 15 15 15 14 14 14
17 16 16 15 15 16 16 17 16 16 16 16 16 16 15 15 15 16 13 13 16 16 16 16 16 16 16 15 15 15 14 14 15 15 15 15 15 15 15 14 14 14 14
17 17 17 15 14 14 15 16 15 15 16 16 15 15 15 14 14 16 14 13 15 16 16 16 16 16 16 16 15 15 14 14 14 14 14 15 14 14 14 14 14 14 14
17 16 17 15 14 14 14 14 15 15 15 15 15 15 14 14 13 13 12 13 15 15 16 16 16 16 16 16 15 15 14 14 14 14 14 14 14 14 14 14 14 13 13
17 16 16 15 14 13 13 14 13 14 15 15 15 14 14 14 13 12 13 13 13 16 15 15 15 16 16 15 15 15 14 14 13 14 14 14 14 14 14 13 13 13 13
17 17 16 16 14 14 13 13 13 13 14 15 15 14 15 14 12 12 14 13 13 14 15 15 15 15 15 15 15 14 14 14 13 13 14 14 14 14 13 13 13 13 13
18 15 16 16 15 15 13 13 13 12 14 14 14 14 14 14 12 13 13 12 13 16 15 15 15 15 15 15 14 14 14 14 14 13 13 13 13 13 13 13 13 13 13
16 16 15 15 15 16 13 14 12 13 14 14 14 14 14 15 13 13 13 14 16 15 15 15 15 15 15 15 14 14 14 14 14 13 13 13 13 13 13 13 13 13 12
15 15 15 15 15 15 14 15 12 12 13 14 14 14 14 15 14 13 14 15 15 15 15 15 15 15 15 15 15 14 14 14 14 14 14 14 13 13 13 13 12 12 12
14 14 14 14 15 12 11 15 13 12 12 13 13 14 13 13 13 14 15 15 15 15 15 15 14 14 14 14 14 14 14 14 14 14 14 14 14 13 13 12 12 12 12
14 13 13 13 13 11 12 15 12 12 13 13 14 13 14 13 13 14 15 15 15 15 14 14 14 14 14 13 13 14 14 14 14 14 14 14 13 13 13 13 12 13 12
13 13 14 13 12 12 13 14 11 12 14 13 14 13 13 13 13 13 14 14 14 14 14 15 14 14 14 14 14 14 14 14 14 14 14 14 13 13 13 13 13 13 13
14 14 13 11 11 12 13 14 12 11 13 14 14 14 13 13 13 13 14 14 14 14 14 14 14 14 14 14 14 14 14 14 14 14 14 14 13 13 13 14 14 13 13
12 12 12 12 10 11 12 12 13 12 12 13 13 13 13 13 13 13 13 13 14 14 15 14 14 14 13 13 13 14 14 14 14 14 13 13 13 14 14 14 13 13 13
12 13 12 11 10 11 12 11 12 11 12 12 13 13 13 13 13 13 13 13 13 14 13 13 14 14 13 13 13 13 14 14 13 13 13 13 13 14 13 13 13 13 12
11 12 11 11 10 11 11 11 12 11 11 12 13 12 13 13 13 13 13 13 13 13 13 14 13 13 13 13 13 13 13 14 13 13 13 13 13 13 13 13 13 12 11
11 11 12 11 10 10 11 12 12 12 11 11 13 13 14 14 14 13 13 13 13 13 14 14 14 14 14 13 13 13 13 13 13 13 12 12 12 12 12 12 12 12 11
12 11 11 10 9 10 11 12 12 12 12 12 12 12 12 13 13 13 13 13 13 13 14 14 14 14 13 14 13 14 12 12 12 12 12 12 12 11 11 11 10 10 9
10 10 10 10 10 10 10 11 11 12 12 12 13 13 12 13 13 12 12 13 13 13 14 13 13 13 13 13 12 12 13 12 12 12 12 12 12 11 10 10 9 9 8
Height
1508 1508 1509 1510 1514 1516 1518 1521 1524 1527 1528 1530 1532 1534 1535 1537 1538 1539 1540 1542 1543 1544 1545 1546 1546 1547 1548 1548 1549 1550 1551 1551 1551 1551 1551 1551 1551 1552 1552 1552 1552 1552 1551
1503 1507 1510 1511 1511 1516 1518 1521 1523 1526 1528 1530 1532 1534 1536 1538 1539 1540 1541 1543 1544 1546 1546 1547 1548 1548 1549 1550 1551 1553 1553 1553 1553 1553 1553 1553 1552 1553 1553 1553 1554 1554 1553
1502 1506 1509 1511 1511 1514 1518 1520 1523 1525 1528 1530 1532 1534 1536 1538 1540 1541 1542 1544 1545 1546 1547 1548 1549 1550 1551 1552 1554 1555 1555 1555 1555 1555 1555 1555 1555 1555 1555 1556 1556 1556 1556
1503 1504 1507 1510 1513 1513 1517 1520 1522 1524 1526 1529 1531 1534 1536 1538 1540 1542 1543 1545 1546 1547 1549 1550 1551 1552 1553 1555 1556 1556 1557 1556 1556 1557 1557 1557 1557 1557 1557 1557 1557 1557 1557
1502 1505 1507 1509 1511 1513 1516 1518 1521 1523 1525 1528 1531 1534 1536 1539 1540 1542 1544 1545 1547 1549 1550 1551 1552 1553 1554 1556 1557 1558 1558 1559 1559 1560 1559 1559 1559 1559 1558 1558 1558 1558 1558
1501 1505 1508 1510 1510 1512 1514 1517 1520 1522 1525 1527 1529 1533 1536 1539 1541 1543 1545 1546 1547 1550 1551 1552 1553 1554 1555 1557 1558 1559 1559 1560 1560 1561 1561 1561 1561 1561 1560 1560 1560 1559 1559
1500 1504 1508 1511 1511 1512 1514 1517 1519 1522 1525 1527 1529 1532 1535 1538 1540 1543 1545 1546 1548 1551 1552 1554 1555 1556 1557 1558 1559 1560 1560 1560 1561 1562 1562 1563 1562 1562 1562 1562 1561 1561 1560
1498 1504 1508 1511 1512 1514 1514 1517 1519 1521 1524 1527 1529 1531 1534 1537 1539 1542 1544 1546 1548 1551 1553 1554 1556 1557 1558 1559 1560 1561 1561 1561 1562 1562 1563 1564 1564 1563 1563 1563 1563 1562 1561
1495 1499 1505 1508 1511 1514 1515 1517 1519 1521 1523 1526 1529 1530 1533 1536 1538 1540 1542 1545 1547 1550 1553 1555 1556 1557 1559 1560 1561 1562 1562 1563 1562 1563 1563 1564 1565 1565 1564 1564 1563 1563 1562
1499 1497 1498 1505 1508 1510 1513 1516 1518 1521 1522 1525 1528 1531 1532 1534 1536 1538 1541 1545 1546 1549 1552 1554 1557 1558 1559 1560 1562 1563 1563 1564 1563 1564 1564 1565 1565 1565 1565 1564 1564 1563 1562
1496 1499 1498 1502 1506 1508 1511 1513 1516 1520 1523 1525 1527 1531 1532 1532 1535 1538 1541 1544 1546 1549 1552 1554 1556 1558 1559 1560 1562 1563 1563 1564 1564 1564 1565 1565 1565 1565 1565 1565 1564 1564 1563
1491 1497 1499 1501 1503 1504 1509 1509 1516 1520 1522 1523 1525 1529 1530 1532 1534 1537 1541 1544 1545 1548 1552 1554 1556 1558 1559 1560 1561 1562 1563 1564 1564 1564 1565 1565 1565 1565 1565 1564 1564 1563 1563
1487 1492 1497 1500 1495 1500 1505 1510 1515 1519 1519 1521 1523 1525 1529 1530 1532 1535 1539 1542 1545 1546 1550 1553 1556 1557 1558 1559 1560 1561 1563 1563 1564 1564 1564 1565 1564 1564 1564 1564 1563 1563 1562
1483 1487 1492 1494 1495 1499 1499 1511 1514 1514 1515 1517 1519 1523 1525 1528 1530 1533 1537 1540 1542 1545 1549 1552 1555 1556 1557 1558 1559 1560 1561 1562 1563 1564 1564 1564 1564 1563 1563 1562 1562 1562 1561
1479 1481 1484 1487 1490 1490 1495 1503 1507 1507 1510 1512 1515 1519 1523 1525 1528 1532 1535 1537 1542 1545 1547 1550 1553 1554 1556 1557 1558 1560 1561 1562 1562 1562 1563 1563 1563 1562 1562 1561 1561 1561 1560
1475 1476 1479 1482 1483 1484 1483 1491 1499 1503 1509 1506 1511 1515 1520 1523 1526 1530 1533 1537 1541 1544 1546 1548 1551 1552 1553 1555 1557 1559 1560 1561 1561 1562 1562 1562 1562 1561 1561 1560 1559 1559 1558
1472 1471 1475 1479 1477 1476 1476 1480 1494 1500 1504 1508 1509 1513 1517 1523 1525 1528 1531 1535 1539 1542 1545 1547 1549 1551 1552 1553 1555 1556 1557 1559 1560 1562 1561 1561 1560 1560 1559 1558 1557 1557 1555
1467 1468 1472 1474 1474 1476 1476 1474 1485 1496 1501 1505 1508 1511 1515 1522 1525 1525 1528 1533 1537 1541 1543 1545 1547 1548 1550 1552 1553 1555 1556 1557 1558 1560 1558 1558 1559 1558 1557 1555 1554 1554 1553
1463 1466 1468 1471 1472 1476 1477 1461 1489 1493 1499 1504 1507 1510 1515 1520 1523 1523 1526 1530 1535 1539 1541 1543 1544 1545 1547 1550 1551 1553 1555 1555 1557 1556 1556 1556 1556 1555 1554 1553 1551 1550 1550
1459 1462 1466 1470 1471 1473 1472 1473 1487 1491 1498 1501 1505 1509 1513 1517 1520 1523 1525 1528 1532 1535 1538 1539 1541 1543 1544 1547 1549 1550 1552 1553 1555 1555 1553 1553 1553 1553 1552 1550 1548 1548 1547
1455 1457 1461 1466 1470 1471 1472 1470 1482 1486 1493 1498 1503 1508 1511 1513 1516 1520 1524 1526 1529 1531 1534 1536 1538 1539 1540 1543 1545 1547 1549 1551 1551 1552 1552 1549 1550 1549 1548 1547 1545 1544 1544
1451 1455 1457 1461 1465 1467 1467 1473 1479 1484 1490 1494 1501 1506 1507 1510 1513 1517 1520 1523 1526 1528 1530 1533 1535 1536 1537 1539 1540 1543 1544 1546 1547 1547 1550 1547 1546 1545 1545 1544 1543 1542 1541
1447 1450 1451 1455 1459 1465 1467 1471 1474 1482 1488 1492 1497 1502 1503 1507 1511 1515 1518 1520 1523 1525 1527 1529 1530 1532 1533 1535 1536 1538 1538 1537 1539 1539 1545 1546 1544 1542 1543 1543 1541 1539 1539
1443 1447 1449 1451 1454 1462 1467 1470 1475 1480 1486 1490 1494 1498 1500 1503 1508 1512 1515 1517 1519 1521 1523 1526 1527 1528 1530 1530 1530 1531 1532 1532 1533 1534 1539 1540 1540 1539 1539 1538 1539 1538 1536
1435 1442 1446 1451 1454 1460 1465 1468 1471 1479 1482 1487 1491 1494 1498 1501 1504 1508 1512 1515 1515 1519 1521 1522 1522 1523 1525 1524 1526 1525 1528 1529 1529 1530 1531 1534 1535 1536 1535 1533 1534 1533 1533
1431 1438 1444 1448 1453 1460 1465 1467 1472 1478 1483 1485 1488 1492 1497 1501 1502 1507 1510 1510 1513 1514 1515 1517 1517 1518 1522 1518 1519 1520 1520 1523 1523 1528 1530 1531 1531 1533 1532 1530 1529 1529 1529
Wind_Speed
11 16 22 23 21 20 19 17 16 16 15 15 15 12 12 15 14 13 15 19 18 17 17 19 20 16 15 18 20 21 19 18 18 15 14 16 17 16 17 15 15 15 14
11 14 20 22 22 19 18 17 16 16 15 15 15 13 12 14 15 15 18 20 18 18 16 17 18 16 17 21 21 21 20 18 17 15 14 14 16 17 16 15 14 15 14
13 15 20 21 21 19 17 17 16 17 17 16 16 14 13 16 15 16 19 19 16 16 15 16 18 20 20 22 21 21 20 16 14 14 13 12 14 16 16 14 13 13 13
11 14 16 21 20 19 17 16 16 17 18 18 17 16 14 17 16 17 19 19 14 14 15 17 19 19 19 20 21 19 18 14 12 13 13 11 12 12 11 12 11 10 10
12 13 14 21 20 18 17 15 15 18 19 20 19 18 17 18 18 19 19 19 15 15 17 18 18 18 18 17 18 16 15 11 8 8 10 11 10 10 10 9 9 9 8
13 14 12 19 18 18 16 14 14 17 19 21 21 20 19 19 20 20 20 20 16 18 18 18 18 18 17 17 17 15 13 11 11 9 9 10 9 10 10 9 9 9 9
12 13 15 18 16 16 14 13 15 17 19 21 22 21 21 21 21 19 21 22 18 20 19 18 17 17 16 16 14 13 12 8 11 10 9 8 9 9 9 9 9 9 9
10 14 15 14 15 14 12 12 15 18 20 22 23 23 23 21 21 21 24 22 22 21 19 18 16 15 15 14 13 12 11 8 9 8 8 7 7 8 8 8 8 9 9
16 20 20 18 14 12 11 12 15 18 21 24 24 24 24 22 23 24 23 23 25 22 19 17 15 14 12 12 11 11 8 7 5 7 7 6 5 6 6 6 7 7 8
17 21 22 21 19 17 12 13 14 18 22 25 25 25 26 24 25 25 24 22 24 23 20 17 14 12 11 10 10 10 8 7 4 3 4 5 4 4 4 5 6 7 8
21 23 23 26 24 18 14 13 14 17 22 23 24 26 27 24 26 26 25 23 23 23 19 16 13 11 9 8 8 8 7 5 4 2 3 4 3 3 3 4 5 6 7
23 24 27 29 27 21 14 13 11 17 24 27 27 30 28 24 27 26 26 22 21 23 19 15 12 10 8 7 7 7 7 5 2 1 2 3 3 3 3 3 4 5 6
22 25 26 28 18 20 8 3 11 19 28 29 31 33 29 27 29 29 28 25 22 22 21 16 12 9 8 8 7 8 5 4 3 2 2 3 5 4 4 4 5 6 7
27 24 29 26 28 41 43 35 27 28 32 36 34 32 26 26 32 31 29 27 26 23 19 14 11 10 8 7 6 6 4 3 6 3 4 4 5 7 6 6 6 7 9
21 22 24 29 24 25 29 36 26 33 37 39 36 32 25 28 33 30 30 29 24 20 17 15 13 11 9 7 8 7 5 6 3 1 5 7 6 6 9 8 6 6 10
18 19 24 23 26 25 27 42 27 38 39 37 33 34 27 27 29 28 25 23 21 20 18 16 14 10 6 9 8 6 7 4 4 6 5 6 5 7 9 6 6 7 12
21 20 22 21 25 20 24 44 29 40 36 37 25 25 28 25 25 25 25 26 23 21 17 14 12 13 11 8 8 9 7 7 6 7 7 7 7 10 9 9 12 13 11
21 23 22 19 22 23 23 34 31 38 36 31 28 32 29 28 25 27 26 25 23 20 19 17 15 14 13 12 11 10 10 7 6 9 10 7 8 10 12 16 18 16 14
17 20 24 19 28 25 18 28 31 31 34 33 33 31 35 31 29 29 25 23 23 21 20 17 16 15 15 15 13 11 9 7 9 10 10 11 13 15 18 20 17 12 10
26 23 18 23 27 27 21 22 28 27 38 35 36 37 34 30 29 29 27 24 22 21 19 18 17 16 13 12 12 12 9 10 12 14 16 17 18 19 17 12 9 10 10
22 20 21 23 26 26 30 27 37 33 31 32 32 39 35 29 28 27 26 23 22 21 18 16 16 16 15 15 14 15 15 15 16 18 19 17 18 14 10 8 9 9 10
25 23 21 29 24 29 29 33 35 24 23 29 29 29 29 27 27 26 26 23 21 19 18 17 17 16 16 18 17 14 14 15 17 16 17 15 14 10 9 9 11 11 12
24 21 19 27 30 32 28 26 20 18 17 24 22 23 27 26 23 22 24 24 23 21 19 19 19 19 19 20 22 17 10 12 18 17 18 13 10 9 10 12 13 15 15
22 17 19 22 33 30 24 24 25 27 28 24 25 29 26 25 25 24 22 23 22 21 18 18 18 19 20 23 27 25 21 14 14 11 19 15 12 11 12 17 17 17 16
24 28 25 21 30 23 18 20 21 18 19 21 18 17 19 21 23 22 23 21 19 18 20 21 21 20 26 26 28 28 26 21 15 13 11 14 15 14 18 18 19 19 18
19 24 29 27 20 23 16 16 15 14 14 12 9 13 21 21 18 19 22 18 23 22 23 17 17 18 27 28 27 26 28 30 26 21 17 19 16 18 19 19 20 20 20
Wind_Direction
176 178 171 168 167 169 171 175 176 172 172 171 169 163 156 158 156 145 132 131 118 123 129 123 116 120 123 118 116 114 108 102 99 96 95 97 92 90 87 80 78 81 75
180 179 183 175 170 172 173 177 181 179 182 177 178 169 164 162 156 144 137 131 133 135 142 132 129 130 127 116 113 109 103 97 94 93 87 96 93 97 93 84 76 80 79
190 176 188 185 177 176 179 180 185 187 187 184 183 179 171 164 159 146 141 138 147 151 142 139 131 123 119 115 110 105 97 90 93 92 88 91 94 97 90 87 86 81 80
195 188 194 187 184 182 185 188 189 192 189 189 186 182 180 169 164 154 146 147 151 152 145 136 128 122 118 117 114 109 99 96 93 87 85 92 95 102 102 88 83 89 85
198 192 196 192 189 189 189 193 193 193 189 192 187 185 181 175 170 161 157 158 158 155 145 139 132 127 122 121 123 119 119 113 100 79 86 88 90 93 92 87 80 77 69
188 192 196 205 197 193 192 195 192 187 188 190 186 185 182 181 175 168 164 168 164 157 148 141 135 130 127 126 124 120 112 109 99 87 86 88 90 88 87 83 75 71 62
191 199 198 210 203 195 196 193 190 189 189 187 187 186 185 184 181 175 170 173 168 159 151 145 138 134 130 128 127 121 113 107 88 85 87 86 86 85 82 77 73 66 59
188 199 201 203 203 201 200 193 192 192 193 190 189 188 187 185 181 174 171 172 169 159 154 148 143 138 134 131 128 123 117 111 93 89 84 80 82 80 75 69 63 58 50
189 193 199 191 199 202 199 194 198 198 196 193 192 188 188 186 181 181 172 163 164 161 159 155 150 145 140 136 133 132 129 112 92 94 87 74 67 69 69 65 57 49 41
215 205 205 193 185 187 190 193 206 207 198 195 193 189 186 187 183 177 169 167 167 166 165 162 157 151 146 139 135 137 138 115 116 71 67 59 47 51 50 48 44 35 28
215 224 214 196 189 181 179 199 205 211 202 198 194 191 188 190 179 172 166 170 169 168 170 167 161 156 149 144 141 145 143 125 112 44 37 8 3 3 17 27 30 29 25
216 226 225 208 179 171 173 179 213 221 205 200 196 194 194 197 182 177 168 174 176 172 173 172 169 164 159 154 142 151 153 150 143 286 303 335 328 327 335 353 6 11 14
218 228 230 227 216 188 120 208 260 228 207 204 200 195 198 194 181 179 173 176 177 181 174 176 176 175 174 171 149 152 176 167 186 271 335 348 341 322 322 334 330 332 323
239 236 232 242 245 236 282 259 275 238 212 202 198 198 201 203 189 183 179 181 183 182 177 180 184 186 192 196 174 182 198 188 206 236 336 327 352 349 330 318 311 318 319
236 249 241 244 251 268 254 244 281 227 210 204 198 197 201 200 189 186 188 188 187 182 183 188 187 193 194 201 210 207 211 149 115 275 300 335 327 329 346 329 307 293 297
247 247 247 246 258 257 244 249 278 226 218 191 195 188 192 196 190 189 192 193 187 189 189 194 196 203 198 203 197 190 176 185 201 241 277 306 297 299 328 319 324 299 298
260 246 240 250 266 244 231 225 256 215 216 215 196 195 193 200 195 190 190 189 189 190 197 198 202 207 209 196 189 192 195 211 205 247 254 269 274 294 296 293 304 302 288
252 238 234 251 254 222 223 213 222 202 208 201 197 183 190 199 204 192 189 191 193 194 201 206 207 205 200 208 212 216 215 211 203 234 244 243 256 272 269 286 296 293 291
246 238 238 243 215 211 194 163 176 194 194 192 184 188 194 200 196 195 195 195 198 200 205 207 206 207 212 216 213 198 216 217 233 235 228 248 256 262 276 288 287 287 288
241 243 224 226 205 208 207 163 195 192 198 198 194 196 197 202 201 200 200 198 199 201 202 202 201 205 208 204 214 201 215 221 239 237 241 250 260 271 276 277 281 294 297
224 212 229 222 198 188 201 202 198 208 187 192 201 207 209 201 199 198 200 199 200 204 205 207 206 207 209 200 209 215 226 239 242 255 259 258 271 269 277 280 292 292 296
218 227 217 210 219 217 213 195 196 185 191 199 198 193 199 200 200 199 200 202 206 205 203 205 209 209 208 207 211 213 218 224 229 241 258 261 267 271 280 294 295 295 298
219 224 229 216 213 187 184 184 188 201 204 199 202 204 195 196 199 202 207 206 210 212 216 217 215 213 211 213 223 219 202 208 211 222 241 251 255 277 291 306 295 296 292
215 222 231 217 195 185 185 183 176 181 188 194 196 200 198 198 208 207 208 214 217 220 222 229 237 254 234 228 223 220 219 198 189 195 222 229 248 272 284 297 290 295 289
223 224 228 213 176 180 183 182 175 177 179 177 194 200 202 202 201 210 214 220 222 233 238 242 247 250 260 244 242 231 221 217 209 208 200 222 242 256 274 275 282 291 287
195 207 196 172 151 161 162 148 162 158 166 176 185 203 204 212 212 215 215 222 230 245 245 246 256 265 260 251 234 224 231 239 226 233 236 260 264 258 263 269 276 284 289